South Hill, VA

10:41 PM EST on November 11, 2019 (GMT -0500)
Mecklenburg-Brunswick Regional

Weather History for KAVC - September, 2019

Change the Weather History Date:

Monday, September 16, 2019

  Actual Average (WUND) Record (WUND)
Temperature  
Mean Temperature 78 °F -  
Max Temperature 91 °F - - (-1)
Min Temperature 65 °F - - (-1)
Cooling Degree Days 12    
Growing Degree Days 28 (Base 50)    
Moisture  
Dew Point 66 °F    
Average Humidity 77    
Maximum Humidity 100    
Minimum Humidity 35    
Precipitation  
Precipitation 0.00 in - - ()
Sea Level Pressure  
Sea Level Pressure 30.10 in    
Wind  
Wind Speed 1 mph (North)    
Max Wind Speed 9 mph    
Max Gust Speed -    
Averages and records for this station are not official NWS values.
T = Trace of Precipitation, MM = Missing Value Source: NWS Daily Summary

Daily Weather History Graph

Daily Weather History Graph

Search for Another Location

Airport or City:

Astronomy

Sep. 16, 2019 Rise Set
Actual Time 6:55 AM EDT 7:18 PM EDT
Civil Twilight 6:29 AM EDT 7:44 PM EDT
Nautical Twilight 5:58 AM EDT 8:14 PM EDT
Astronomical Twilight 5:27 AM EDT 8:45 PM EDT
Moon 8:55 PM EDT (9/16) 8:57 AM EDT (9/16)
Length of Visible Light 13h 15m
Length of Day
12h 23m
Waning Gibbous, 94% of the Moon is Illuminated
Sep 16
Waning Gibbous
Sep 21
Last Quarter
Sep 28
New
Oct 5
First Quarter
Oct 13
Full

Hourly Weather History & Observations

Time (EDT) Temp. Heat Index Dew Point Humidity Pressure Visibility Wind Dir Wind Speed Gust Speed Precip Events Conditions
12:15 AM 69.3 °F - 69.3 °F 100% 30.16 in - Calm Calm - N/A   Unknown
12:35 AM 67.5 °F - 67.5 °F 100% 30.16 in - Calm Calm - N/A   Unknown
12:55 AM 68.5 °F - 68.5 °F 100% 30.16 in - Calm Calm - N/A   Unknown
1:15 AM 69.3 °F - 69.3 °F 100% 30.16 in - Calm Calm - N/A   Unknown
1:35 AM 67.1 °F - 67.1 °F 100% 30.15 in - Calm Calm - N/A   Unknown
1:55 AM 68.2 °F - 68.2 °F 100% 30.15 in - Calm Calm - N/A   Unknown
2:15 AM 68.0 °F - 68.0 °F 100% 30.15 in - Calm Calm - N/A   Unknown
2:35 AM 67.3 °F - 67.3 °F 100% 30.15 in - North 3.5 mph - N/A   Unknown
2:55 AM 67.6 °F - 67.6 °F 100% 30.15 in - Calm Calm - N/A   Unknown
3:15 AM 67.5 °F - 67.5 °F 100% 30.15 in - Calm Calm - N/A   Unknown
3:35 AM 66.6 °F - 66.6 °F 100% 30.14 in - Calm Calm - N/A   Unknown
3:55 AM 66.2 °F - 66.2 °F 100% 30.14 in - Calm Calm - N/A   Unknown
4:15 AM 66.4 °F - 66.4 °F 100% 30.14 in - North 3.5 mph - N/A   Unknown
4:35 AM 66.4 °F - 66.4 °F 100% 30.14 in - Calm Calm - N/A   Unknown
4:55 AM 66.0 °F - 66.0 °F 100% 30.14 in - Calm Calm - N/A   Unknown
5:15 AM 66.4 °F - 66.4 °F 100% 30.13 in - North 3.5 mph - N/A   Overcast
5:35 AM 66.7 °F - 66.7 °F 100% 30.14 in - Calm Calm - N/A   Overcast
5:55 AM 67.3 °F - 67.3 °F 100% 30.14 in - Calm Calm - N/A   Overcast
6:35 AM 66.7 °F - 66.7 °F 100% 30.13 in - Calm Calm - N/A   Overcast
6:55 AM 65.7 °F - 65.7 °F 100% 30.14 in - Calm Calm - N/A   Overcast
7:15 AM 65.3 °F - 65.3 °F 100% 30.14 in - Calm Calm - N/A   Unknown
7:35 AM 66.2 °F - 66.2 °F 100% 30.15 in - North 3.5 mph - N/A   Overcast
7:55 AM 66.9 °F - 66.9 °F 100% 30.15 in - NNW 3.5 mph - N/A   Overcast
8:15 AM 67.3 °F - 67.3 °F 100% 30.15 in - North 4.6 mph - N/A   Overcast
8:35 AM 68.0 °F - 68.0 °F 100% 30.16 in - North 4.6 mph - N/A   Overcast
8:55 AM 69.4 °F - 69.4 °F 100% 30.16 in - North 4.6 mph - N/A   Mostly Cloudy
9:15 AM 71.2 °F - 71.2 °F 100% 30.16 in - North 4.6 mph - N/A   Unknown
9:35 AM 73.4 °F - 72.9 °F 98% 30.16 in - North 3.5 mph - N/A   Unknown
9:55 AM 75.6 °F - 72.0 °F 89% 30.16 in - North 5.8 mph - N/A   Unknown
10:35 AM 80.4 °F 84.4 °F 71.8 °F 75% 30.15 in - Calm Calm - N/A   Clear
10:55 AM 81.3 °F 85.2 °F 70.7 °F 70% 30.15 in - Calm Calm - N/A   Clear
11:15 AM 82.6 °F 84.7 °F 65.8 °F 57% 30.14 in - NNW 3.5 mph - N/A   Clear
11:35 AM 84.4 °F 87.3 °F 67.6 °F 57% 30.14 in - Calm Calm - N/A   Clear
11:55 AM 84.2 °F 86.3 °F 65.8 °F 54% 30.13 in - NNE 6.9 mph - N/A   Clear
12:15 PM 85.5 °F 85.9 °F 61.7 °F 45% 30.12 in - Calm Calm - N/A   Clear
12:35 PM 86.0 °F 87.1 °F 63.9 °F 47% 30.12 in - WNW 3.5 mph - N/A   Clear
12:55 PM 87.3 °F 88.3 °F 63.3 °F 45% 30.11 in - NNE 4.6 mph - N/A   Clear
1:15 PM 86.5 °F 87.8 °F 64.2 °F 47% 30.10 in - Calm Calm - N/A   Clear
1:55 PM 88.9 °F 89.7 °F 62.8 °F 42% 30.09 in - Calm Calm - N/A   Clear
2:35 PM 89.8 °F 90.0 °F 61.9 °F 39% 30.07 in - North 9.2 mph - N/A   Clear
2:55 PM 88.9 °F 88.8 °F 61.0 °F 39% 30.06 in - Calm Calm - N/A   Clear
3:15 PM 90.0 °F 90.6 °F 62.8 °F 40% 30.05 in - Calm Calm - N/A   Clear
3:35 PM 90.5 °F 91.1 °F 62.2 °F 39% 30.04 in - North 4.6 mph - N/A   Clear
3:55 PM 90.3 °F 90.2 °F 60.4 °F 37% 30.03 in - North 4.6 mph - N/A   Clear
4:15 PM 90.5 °F 89.8 °F 59.7 °F 35% 30.02 in - Calm Calm - N/A   Clear
4:35 PM 90.1 °F 89.6 °F 60.1 °F 36% 30.02 in - Calm Calm - N/A   Clear
4:55 PM 90.0 °F 89.7 °F 60.6 °F 37% 30.02 in - NNW 3.5 mph - N/A   Clear
5:15 PM 89.6 °F 89.8 °F 61.9 °F 39% 30.01 in - Calm Calm - N/A   Clear
5:35 PM 88.9 °F 89.4 °F 62.1 °F 41% 30.01 in - East 3.5 mph - N/A   Clear
5:55 PM 88.5 °F 89.2 °F 62.6 °F 42% 30.01 in - Calm Calm - N/A   Clear
6:15 PM 87.6 °F 89.1 °F 64.4 °F 46% 30.02 in - SSE 3.5 mph - N/A   Clear
6:35 PM 86.2 °F 87.6 °F 64.2 °F 48% 30.02 in - SSE 3.5 mph - N/A   Clear
6:55 PM 84.4 °F 85.9 °F 64.4 °F 51% 30.02 in - SSE 3.5 mph - N/A   Clear
7:15 PM 81.9 °F 83.5 °F 64.8 °F 56% 30.03 in - Calm Calm - N/A   Clear
7:35 PM 79.7 °F - 65.1 °F 61% 30.03 in - Calm Calm - N/A   Clear
7:55 PM 75.6 °F - 66.7 °F 74% 30.03 in - Calm Calm - N/A   Clear
8:15 PM 73.6 °F - 66.7 °F 79% 30.03 in - Calm Calm - N/A   Clear
8:35 PM 74.1 °F - 66.9 °F 78% 30.03 in - Calm Calm - N/A   Clear
8:55 PM 72.7 °F - 66.9 °F 82% 30.03 in - Calm Calm - N/A   Clear
9:15 PM 71.8 °F - 67.1 °F 85% 30.03 in - Calm Calm - N/A   Clear
9:55 PM 72.5 °F - 67.1 °F 83% 30.04 in - Calm Calm - N/A   Clear
10:15 PM 71.4 °F - 67.1 °F 86% 30.04 in - Calm Calm - N/A   Unknown
10:35 PM 70.7 °F - 67.3 °F 89% 30.05 in - Calm Calm - N/A   Unknown
10:55 PM 71.4 °F - 67.6 °F 88% 30.05 in - Calm Calm - N/A   Unknown
11:15 PM 70.0 °F - 67.8 °F 93% 30.05 in - Calm Calm - N/A   Unknown
11:35 PM 68.9 °F - 67.6 °F 96% 30.04 in - Calm Calm - N/A   Unknown
11:55 PM 67.1 °F - 66.9 °F 99% 30.04 in - Calm Calm - N/A   Unknown